BEIDOU-2 IGSO-7

Last updated on Sat Dec 13 2025 00:02:50 GMT+0000 (Coordinated Universal Time)

1 43539U 18057A 25345.90997160 -.00000047 00000+0 00000+0 0 9995 2 43539 55.1747 164.6780 0092462 235.1865 119.5447 1.00257146 27242
UTC large
Height (km)
Speed (km/s)
/
Latitude / Longitude
Inclination (degrees)
Orbital Period (minutes)
Azimuth
Elevation
Range (km)
Doppler Factor

Next 0 passes for location: London (51.5072 / 0.1276)

Sorry there are no passes over London.